Home   Weather   Panama City   Past weeks

Flag for USA Past Weather in Panama City, Florida, USA — Yesterday and Last 2 Weeks

Now
89 °F

Thundershowers. Sunny.


Feels Like: 101 °F
Forecast: 77 / 91 °F
Wind: 9 mph from South

Location: Tyndall Air Force Base

Current Time: Aug 20, 2017 at 6:10:37 pm

Latest Report: Aug 20, 2017 at 4:56 pm


Visibility: 10 mi

Pressure: 30.02 "Hg

Humidity: 65%

Dew Point: 76 °F

Location of Panama CityLocation

Past Weather in Panama City — Graph

°F

Panama City Temperature Yesterday

Maximum temperature yesterday: 89 °F (at 2:56 pm)
Minimum temperature yesterday: 78 °F (at 11:56 pm)
Average temperature yesterday: 83 °F

High & Low Weather Summary for the Past Weeks

 TemperatureHumidityPressure
High92 °F (Aug 18, 12:56 pm)100% (Aug 6, 2:41 am)30.15 "Hg (Aug 6, 2:41 am)
Low75 °F (Aug 6, 8:33 am)52% (Aug 20, 11:56 am)29.92 "Hg (Aug 13, 3:56 am)
Average83 °F81%30.02 "Hg
* Reported Aug 5 4:56 pm — Aug 20 4:56 pm, Panama City. Weather by CustomWeather, © 2017

Note: Actual official high and low records may vary slightly from our data, if they occured in-between our weather recording intervals... More about our weather records

Advertising

Panama City Weather History for the Previous 24 Hours

Scroll right to see more
 ConditionsComfort  
Time TempWeatherWind HumidityBarometerVisibility
4:56 pm
Sun, Aug 20
89 °FThundershowers. Sunny.9 mph65%30.02 "Hg10 mi
3:56 pm90 °FSunny.10 mph66%30.00 "Hg10 mi
2:56 pm91 °FSunny.8 mph63%30.01 "Hg10 mi
1:56 pm91 °FSunny.10 mph61%30.03 "Hg10 mi
12:56 pm91 °FSunny.8 mph62%30.05 "Hg10 mi
11:56 am91 °FSunny.No wind52%30.06 "Hg10 mi
10:56 am90 °FSunny.6 mph58%30.06 "Hg10 mi
9:56 am88 °FSunny.No wind69%30.07 "Hg10 mi
8:56 am86 °FSunny.5 mph76%30.05 "Hg10 mi
7:56 am82 °FSunny.5 mph92%30.04 "Hg10 mi
6:56 am77 °FSunny.No wind99%30.03 "Hg9 mi
6:31 am77 °FFog.No wind100%30.03 "Hg4 mi
5:56 am76 °FSunny.No wind98%30.02 "Hg8 mi
4:56 am76 °FClear.No wind96%30.00 "Hg10 mi
3:56 am76 °FClear.No wind96%29.99 "Hg10 mi
2:56 am77 °FClear.No wind96%29.98 "Hg10 mi
1:56 am78 °FClear.No wind94%29.99 "Hg10 mi
12:56 am77 °FClear.No wind95%30.00 "Hg10 mi
11:56 pm
Sat, Aug 19
78 °FClear.No wind93%30.00 "Hg10 mi
10:56 pm79 °FClear.No wind91%30.01 "Hg10 mi
9:56 pm80 °FClear.No wind89%30.00 "Hg10 mi
8:56 pm80 °FClear.No wind88%29.98 "Hg10 mi
7:56 pm84 °FClear.3 mph77%29.96 "Hg10 mi
6:56 pm85 °FClear.6 mph72%29.96 "Hg10 mi
Weather by CustomWeather, © 2017

See weather overviewHow to use our weather pages